QB50P2

Last updated on Sun Oct 19 2025 00:03:52 GMT+0000 (Coordinated Universal Time)

1 40032U 14033Y 25291.19083816 .00012811 00000+0 78161-3 0 9993 2 40032 98.0583 269.0759 0005839 283.7610 76.2968 15.10466984616076
UTC large
Height (km)
Speed (km/s)
/
Latitude / Longitude
Inclination (degrees)
Orbital Period (minutes)
Azimuth
Elevation
Range (km)
Doppler Factor

Next 0 passes for location: London (51.5072 / 0.1276)

Sorry there are no passes over London.